TimeMDT,TemperatureF,Dew PointF,Humidity,Sea Level PressureIn,VisibilityMPH,Wind Direction,Wind SpeedMPH,Gust SpeedMPH,PrecipitationIn,Events,Conditions,WindDirDegrees,DateUTC
12:54 AM,28.9,26.1,89,29.89,9.0,West,3.5,-,N/A,,Clear,280,2013-10-29 06:54:00
1:54 AM,28.9,27.0,92,29.88,7.0,NNW,3.5,-,N/A,,Clear,340,2013-10-29 07:54:00
2:54 AM,30.0,27.0,88,29.89,6.0,Calm,Calm,-,N/A,,Clear,0,2013-10-29 08:54:00
3:32 AM,26.6,24.8,93,29.98,7.0,Calm,Calm,-,N/A,,Scattered Clouds,0,2013-10-29 09:32:00
3:40 AM,28.4,24.8,86,29.98,7.0,Calm,Calm,-,N/A,,Mostly Cloudy,0,2013-10-29 09:40:00
4:17 AM,30.2,26.6,86,29.97,6.0,Calm,Calm,-,N/A,,Overcast,0,2013-10-29 10:17:00
4:54 AM,30.0,28.0,92,29.91,2.5,Calm,Calm,-,N/A,,Overcast,0,2013-10-29 10:54:00
5:05 AM,30.2,28.4,93,29.97,4.0,ESE,3.5,-,N/A,,Overcast,110,2013-10-29 11:05:00
5:28 AM,30.2,28.4,93,29.97,1.8,ESE,3.5,-,N/A,,Overcast,120,2013-10-29 11:28:00
5:38 AM,28.4,28.4,100,29.96,0.5,ESE,5.8,-,N/A,Fog,Light Freezing Fog,120,2013-10-29 11:38:00
5:54 AM,30.0,28.0,92,29.94,0.2,SE,3.5,-,N/A,Fog,Light Freezing Fog,130,2013-10-29 11:54:00
6:05 AM,30.2,28.4,93,29.97,0.5,East,4.6,-,N/A,Fog,Light Freezing Fog,100,2013-10-29 12:05:00
6:14 AM,30.2,28.4,93,29.96,0.2,Calm,Calm,-,N/A,Fog,Light Freezing Fog,0,2013-10-29 12:14:00
6:31 AM,28.4,26.6,93,29.96,0.2,NE,3.5,-,N/A,Fog,Light Freezing Fog,40,2013-10-29 12:31:00
6:54 AM,28.9,28.0,96,29.96,0.2,NNE,3.5,-,N/A,Fog,Light Freezing Fog,20,2013-10-29 12:54:00
7:54 AM,28.0,27.0,96,30.00,0.2,NE,3.5,-,N/A,Fog,Light Freezing Fog,40,2013-10-29 13:54:00
8:54 AM,30.0,28.9,96,30.01,0.5,Calm,Calm,-,N/A,Fog,Light Freezing Fog,0,2013-10-29 14:54:00
9:06 AM,30.2,28.4,93,29.99,2.0,Calm,Calm,-,N/A,,Mostly Cloudy,0,2013-10-29 15:06:00
9:12 AM,32.0,30.2,93,29.99,8.0,Calm,Calm,-,N/A,,Scattered Clouds,0,2013-10-29 15:12:00
9:54 AM,39.0,30.9,73,29.97,10.0,Calm,Calm,-,N/A,,Clear,0,2013-10-29 15:54:00
10:54 AM,64.0,17.1,16,29.86,10.0,WSW,18.4,24.2,N/A,,Clear,240,2013-10-29 16:54:00
11:54 AM,66.9,12.9,12,29.84,10.0,WSW,20.7,32.2,N/A,,Clear,240,2013-10-29 17:54:00
12:54 PM,69.1,12.0,11,29.81,10.0,WSW,19.6,31.1,N/A,,Clear,240,2013-10-29 18:54:00
1:54 PM,69.1,12.0,11,29.78,10.0,SW,19.6,31.1,N/A,,Clear,230,2013-10-29 19:54:00
2:54 PM,69.1,12.0,11,29.75,10.0,SW,12.7,21.9,N/A,,Clear,220,2013-10-29 20:54:00
3:54 PM,70.0,10.0,10,29.75,10.0,SSW,20.7,29.9,N/A,,Clear,210,2013-10-29 21:54:00
4:54 PM,68.0,9.0,10,29.75,10.0,SSW,17.3,-,N/A,,Clear,210,2013-10-29 22:54:00
5:54 PM,64.0,12.9,14,29.77,10.0,SW,17.3,23.0,N/A,,Clear,220,2013-10-29 23:54:00
6:54 PM,60.1,19.9,21,29.80,10.0,South,18.4,-,N/A,,Clear,190,2013-10-30 00:54:00
7:54 PM,59.0,21.0,23,29.81,10.0,South,21.9,29.9,N/A,,Clear,190,2013-10-30 01:54:00
8:54 PM,57.0,23.0,27,29.80,10.0,South,23.0,26.5,N/A,,Clear,180,2013-10-30 02:54:00
9:54 PM,57.0,24.1,28,29.76,10.0,South,27.6,34.5,N/A,,Clear,190,2013-10-30 03:54:00
10:54 PM,55.0,24.1,30,29.68,10.0,South,21.9,31.1,N/A,,Clear,190,2013-10-30 04:54:00
11:54 PM,48.0,28.0,46,29.73,10.0,NW,10.4,19.6,N/A,,Partly Cloudy,310,2013-10-30 05:54:00